Council Bluffs, IA

9:08 AM CDT on September 19, 2017 (GMT -0500)
Council Bluffs Municipal

Weather History for KCBF - October, 2012

Change the Weather History Date:

Wednesday, October 24, 2012

  Actual Average Record
Temperature  
Mean Temperature 54 °F -  
Max Temperature 60 °F 59 °F 78 °F (2011)
Min Temperature 48 °F 41 °F 28 °F (1999)
Degree Days  
Heating Degree Days 11    
Growing Degree Days 4 (Base 50)    
Moisture  
Dew Point 55 °F    
Average Humidity 99    
Maximum Humidity 100    
Minimum Humidity 88    
Precipitation  
Precipitation 0.14 in - - ()
Sea Level Pressure  
Sea Level Pressure 29.74 in    
Wind  
Wind Speed 9 mph (North)    
Max Wind Speed 20 mph    
Max Gust Speed 22 mph    
Visibility 2 miles    
Events Fog    
Averages and records for this station are not official NWS values.
T = Trace of Precipitation, MM = Missing Value Source: NWS Daily Summary

Daily Weather History Graph

Daily Weather History Graph

Search for Another Location

Airport or City:

Trip Planner

Search our weather history database for the weather conditions in past years. The results will help you decide how hot, cold, wet, or windy it might be!

Date:

Astronomy

Oct. 24, 2012 Rise Set
Actual Time 7:45 AM CDT 6:28 PM CDT
Civil Twilight 7:17 AM CDT 6:56 PM CDT
Nautical Twilight 6:45 AM CDT 7:28 PM CDT
Astronomical Twilight 6:12 AM CDT 8:00 PM CDT
Moon 3:47 PM CDT (10/24) 2:38 AM CDT (10/24)
Length of Visible Light 11h 39m
Length of Day
10h 42m
Waxing Gibbous, 76% of the Moon is Illuminated
Oct 24
Waxing Gibbous
Oct 29
Full
Nov 6
Last Quarter
Nov 13
New
Nov 20
First Quarter

Hourly Weather History & Observations

Time (CDT) Temp. Dew Point Humidity Pressure Visibility Wind Dir Wind Speed Gust Speed Precip Events Conditions
12:15 AM 59.0 °F 57.2 °F 94% 29.75 in 4.0 mi North 10.4 mph - N/A   Mist
12:35 AM 57.2 °F 57.2 °F 100% 29.76 in 3.0 mi NNE 9.2 mph - N/A   Mist
12:55 AM 57.2 °F 55.4 °F 94% 29.76 in 3.0 mi NNE 8.1 mph - N/A   Mist
1:15 AM 57.2 °F 57.2 °F 100% 29.75 in 3.0 mi ENE 6.9 mph - N/A   Mist
1:35 AM 59.0 °F 57.2 °F 94% 29.76 in 4.0 mi NE 5.8 mph - N/A   Mist
1:55 AM 59.0 °F 55.4 °F 88% 29.76 in 4.0 mi Calm Calm - N/A   Mist
2:15 AM 57.2 °F 55.4 °F 94% 29.76 in 3.0 mi NNW 4.6 mph - N/A   Mist
2:35 AM 55.4 °F 55.4 °F 100% 29.76 in 1.8 mi NNW 5.8 mph - N/A   Mist
2:55 AM 55.4 °F 55.4 °F 100% 29.76 in 1.0 mi North 9.2 mph - N/A   Mist
3:15 AM 55.4 °F 55.4 °F 100% 29.77 in 1.5 mi North 6.9 mph - N/A   Mist
3:35 AM 53.6 °F 53.6 °F 100% 29.76 in 0.8 mi North 8.1 mph - N/A   Mist
3:55 AM 53.6 °F 53.6 °F 100% 29.77 in 1.0 mi North 5.8 mph - N/A   Mist
4:15 AM 53.6 °F 53.6 °F 100% 29.76 in 0.5 mi North 9.2 mph - N/A   Mist
4:35 AM 53.6 °F 53.6 °F 100% 29.76 in 0.2 mi North 9.2 mph - N/A Fog Fog
4:55 AM 53.6 °F 53.6 °F 100% 29.75 in 0.2 mi NNE 9.2 mph - N/A Fog Fog
5:15 AM 55.4 °F 53.6 °F 94% 29.76 in 0.2 mi North 11.5 mph - N/A   Light Drizzle
5:35 AM 55.4 °F 55.4 °F 100% 29.75 in 0.2 mi NNE 9.2 mph - N/A Fog Fog
5:55 AM 55.4 °F 55.4 °F 100% 29.75 in 0.2 mi NNE 9.2 mph - N/A Fog Fog
6:15 AM 55.4 °F 55.4 °F 100% 29.76 in 0.2 mi NNE 9.2 mph - N/A Fog Fog
6:35 AM 55.4 °F 55.4 °F 100% 29.75 in 0.2 mi NE 9.2 mph - N/A   Light Drizzle
6:55 AM 57.2 °F 57.2 °F 100% 29.75 in 0.2 mi NE 9.2 mph - N/A Fog Fog
7:15 AM 57.2 °F 57.2 °F 100% 29.75 in 0.2 mi NNE 8.1 mph - N/A Fog Fog
7:35 AM 57.2 °F 57.2 °F 100% 29.75 in 0.2 mi NNE 8.1 mph - N/A Fog Fog
7:55 AM 57.2 °F 57.2 °F 100% 29.74 in 0.2 mi NE 6.9 mph - N/A Fog Fog
8:15 AM 57.2 °F 57.2 °F 100% 29.74 in 0.2 mi NE 6.9 mph - N/A Fog Fog
8:35 AM 57.2 °F 57.2 °F 100% 29.74 in 0.2 mi NE 4.6 mph - N/A Fog Fog
8:55 AM 59.0 °F 59.0 °F 100% 29.74 in 0.2 mi North 3.5 mph - N/A Fog Fog
9:15 AM 59.0 °F 59.0 °F 100% 29.74 in 0.2 mi Calm Calm - N/A Fog Fog
9:35 AM 59.0 °F 59.0 °F 100% 29.74 in 0.2 mi Calm Calm - N/A Fog Fog
9:55 AM 59.0 °F 59.0 °F 100% 29.74 in 0.2 mi NNW 4.6 mph - N/A Fog Fog
10:15 AM 59.0 °F 59.0 °F 100% 29.74 in 0.2 mi North 5.8 mph - N/A Fog Fog
10:35 AM 59.0 °F 59.0 °F 100% 29.75 in 0.2 mi NNW 8.1 mph - N/A Fog Fog
10:55 AM 59.0 °F 59.0 °F 100% 29.75 in 0.2 mi NNW 6.9 mph - N/A Fog Fog
11:15 AM 59.0 °F 59.0 °F 100% 29.75 in 0.2 mi NNW 8.1 mph - N/A Fog Fog
11:35 AM 59.0 °F 59.0 °F 100% 29.75 in 0.2 mi North 8.1 mph - N/A Fog Fog
11:55 AM 59.0 °F 59.0 °F 100% 29.75 in 0.2 mi NNW 8.1 mph - N/A Fog Fog
12:15 PM 59.0 °F 59.0 °F 100% 29.75 in 0.2 mi North 6.9 mph - N/A Fog Fog
12:35 PM 59.0 °F 59.0 °F 100% 29.74 in 0.2 mi NNW 4.6 mph - N/A Fog Fog
12:55 PM 60.8 °F 60.8 °F 100% 29.74 in 0.5 mi Calm Calm - N/A   Overcast
1:15 PM 60.8 °F 60.8 °F 100% 29.73 in 1.0 mi WNW 3.5 mph - N/A   Overcast
1:35 PM 60.8 °F 60.8 °F 100% 29.73 in 0.8 mi NW 8.1 mph - N/A   Overcast
1:55 PM 59.0 °F 59.0 °F 100% 29.72 in 0.5 mi NW 11.5 mph - N/A Fog Fog
2:15 PM 59.0 °F 59.0 °F 100% 29.73 in 0.2 mi NW 10.4 mph - N/A Fog Fog
2:35 PM 59.0 °F 59.0 °F 100% 29.72 in 1.0 mi NW 10.4 mph - N/A   Overcast
2:55 PM 59.0 °F 59.0 °F 100% 29.72 in 1.2 mi NNW 9.2 mph - N/A   Overcast
3:15 PM 57.2 °F 57.2 °F 100% 29.72 in 2.0 mi NW 11.5 mph - N/A   Mostly Cloudy
3:35 PM 57.2 °F 57.2 °F 100% 29.72 in 1.8 mi NNW 10.4 mph - N/A   Mostly Cloudy
3:55 PM 57.2 °F 57.2 °F 100% 29.71 in 2.0 mi NNW 9.2 mph - N/A   Mostly Cloudy
4:15 PM 55.4 °F 55.4 °F 100% 29.71 in 3.0 mi NNW 11.5 mph - N/A   Mostly Cloudy
4:35 PM 55.4 °F 53.6 °F 94% 29.72 in 2.5 mi NW 13.8 mph - N/A   Mist
4:55 PM 53.6 °F 53.6 °F 100% 29.71 in 2.0 mi NNW 11.5 mph - N/A   Mostly Cloudy
5:15 PM 53.6 °F 53.6 °F 100% 29.72 in 1.2 mi NW 12.7 mph - N/A   Mostly Cloudy
5:35 PM 53.6 °F 53.6 °F 100% 29.72 in 1.2 mi NNW 12.7 mph - N/A   Mostly Cloudy
5:55 PM 53.6 °F 51.8 °F 94% 29.73 in 1.8 mi NNW 9.2 mph 16.1 mph N/A   Mostly Cloudy
6:15 PM 51.8 °F 51.8 °F 100% 29.73 in 2.0 mi NNW 10.4 mph - N/A   Mostly Cloudy
6:35 PM 53.6 °F 51.8 °F 94% 29.72 in 2.5 mi North 13.8 mph - N/A   Overcast
6:55 PM 51.8 °F 51.8 °F 100% 29.74 in 6.0 mi North 16.1 mph - N/A   Mist
7:15 PM 51.8 °F 51.8 °F 100% 29.73 in 6.0 mi North 15.0 mph - N/A   Mist
7:35 PM 51.8 °F 51.8 °F 100% 29.73 in 7.0 mi North 12.7 mph 19.6 mph N/A   Unknown
7:55 PM 51.8 °F 50.0 °F 94% 29.72 in 7.0 mi North 13.8 mph - N/A   Unknown
8:15 PM 51.8 °F 50.0 °F 94% 29.72 in 7.0 mi North 12.7 mph 19.6 mph N/A   Unknown
8:35 PM 51.8 °F 50.0 °F 94% 29.72 in 6.0 mi North 13.8 mph - N/A   Mist
9:15 PM 50.0 °F 50.0 °F 100% 29.73 in 9.0 mi North 11.5 mph 19.6 mph N/A   Unknown
9:35 PM 50.0 °F 50.0 °F 100% 29.73 in 9.0 mi North 11.5 mph 17.3 mph N/A   Unknown
9:55 PM 50.0 °F 48.2 °F 94% 29.74 in 7.0 mi North 15.0 mph - N/A   Unknown
10:15 PM 48.2 °F 48.2 °F 100% 29.75 in 8.0 mi North 15.0 mph 21.9 mph N/A   Unknown
10:35 PM 48.2 °F 48.2 °F 100% 29.72 in 6.0 mi North 19.6 mph - N/A   Mist
10:55 PM 48.2 °F 48.2 °F 100% 29.76 in 6.0 mi NNW 12.7 mph 20.7 mph N/A   Mist
11:15 PM 48.2 °F 46.4 °F 93% 29.75 in 4.0 mi North 15.0 mph - N/A   Light Drizzle
11:35 PM 48.2 °F 46.4 °F 93% 29.74 in 3.0 mi North 16.1 mph 21.9 mph N/A   Light Drizzle
11:55 PM 48.2 °F 46.4 °F 93% 29.73 in 4.0 mi North 11.5 mph - 0.14 in   Light Drizzle